CZ-6A DEB, 61143

Orbit data source: Space-Track

CZ-6A DEB, 61143 is space debris in LEO originally from a launch on Tue, 06 Aug 2024 UTC launched from the Taiyaun Space Center, China (TSC). Debris objects in space refer to the collection of defunct objects orbiting the Earth. Examples of debris include non-operational satellites, rocket bodies, and fragments generated from explosions, collisions, or faulty payload assembly.

Loading next visibility...
Identifier
61143, 2024-140QM
Orbit
LEO
Country
Flag of CNCN / PRC
Related business
Manufacturer
SAST
Mission
Spacecraft
Bus & Motor
Unknown
Mass
Unknown
Launch date (UTC)
2024-08-06 (2 years ago)
Launch vehicle
Unknown
Launch site
Taiyaun Space Center, China (TSC)
Object type
Payload
Rocket body
Debris
Shape & HBR
Unknown shape, 0.1 m
Radar Cross Section
Medium (>0.1 m² and <1 m²)

Expand to show TLE details & history
Last TLE update: 15 hours ago

TLE from 15 hours ago
0 CZ-6A DEB
1 61143U 24140QM  26171.33865919  .00001829  00000-0  37749-3 0  9990
2 61143  89.1359 281.0603 0083969 233.8396 125.5027 14.57831060 97004
Epoch: 2026-06-20T08:07Z
TLE epoch observation values (Epoch: 2026-06-20T08:07:40.154Z)
Latitude
0.00003°
Longitude
-109.41172°
Altitude
738.146 km
Speed
7.467 km/s
True Right ascension
18h 44m 14s
True Declination
0° 00' 00"
Sunlit
Object was in full shadow at epoch
Visualization orbit readout
Latitude
Unknown
Longitude
Unknown
Altitude
Unknown
Speed
Unknown
Apparent Right ascension
Unknown
Apparent Declination
Unknown
Sunlit
N/A
Visualization observer readout
Local Sidereal Time
10:20:30
Azimuth
Unknown
Elevation
Unknown
Doppler factor
Unknown
Orbital elements
Apogee altitude
756.492 km
Perigee altitude
637.672 km
Semi-major axis
7,075.219 km
Eccentricity
0.0084
Inclination
89.1359°
RAAN
281.0603°
Arg. of periapsis
233.8396°
True anomaly
126.28126°
Mean anomaly
125.5027°
Eccentric anomaly
125.89245°
Mean motion
3.64698 °/min
Orbital period
98.71 mins
BSTAR
0.00037749
Loading maneuver chart data...
Computing Atmospheric mass density...
Loading historical data...
Loading historical data...
Loading historical data...
Loading historical data...
Loading historical data...
Loading historical data...
Loading historical data...

Documentation

Showing up to 5 results
|